Zurück zum Katalog

ATLAS 5 CENTAUR DEB

AktivHEO
NORAD 44643·DEBRIS·🇺🇸 United States

Gestartet Oct 17, 2018 von Cape Canaveral Space Force Station

Loading…

Nächste Überflüge (nächste 24 Stunden)

TLE

AktuellSource: Space-Track

Epoche: Sep 11, 2026, 21:10 UTC

1 44643U 18079D   26254.88195097 -.00000195  00000-0  00000+0 0  9997
2 44643  14.0165  16.0533 4745217 344.6400   4.7866  1.81958285 48829

Verfolge ATLAS 5 CENTAUR DEB in Echtzeit mit AllMySat

Download on the App Store